Find Pleiades-Orpheus

NORAD ID: 62387 Int'l Des: NNA 2024-247 Owner: BRONC Country: US operational
LEOCIRCULAR

实时位置

正在加载3D地球...

关于 Pleiades-Orpheus

正在加载描述...

即将过境

Passes for default location (London). Set your location on the main map for personalized predictions.

高度历史

Loading altitude history...

两行轨道根数

1 62387U 24247L 26106.65470617 .00026878 00000-0 50509-3 0 9999
2 62387 44.9915 236.5727 0009397 278.4462 81.5364 15.48114473 73930
Epoch: Apr 16, 2026 • Age: 16 hours

当前状态

高度 431.8 km
速度 7.65 km/s
星下点 42.87°N, 25.12°E
发射日期 Dec 21, 2024
运行时间 1.3 years
类型 other

技术详情

分类 Payload
质量 1.00 kg
干质量 1.00 kg
总质量 1.00 kg
长度 0.10 m
直径 0.10 m
跨度 0.10 m
形状 Box
制造商 BRONC/STANSI
平台类型 Cubesat 1U
阶段状态 In Orbit
所有者/国家 BRONC/US

Most Searched